Cotulla, TX

12:08 AM CST on February 28, 2017 (GMT -0600)
Cotulla-La Salle County

Weather History for KCOT - October, 2013

Change the Weather History Date:

Friday, October 11, 2013

  Actual Average Record
Temperature  
Mean Temperature 84 °F -  
Max Temperature 93 °F 81 °F 96 °F (2008)
Min Temperature 75 °F 61 °F 51 °F (2000)
Cooling Degree Days 19    
Growing Degree Days 34 (Base 50)    
Moisture  
Dew Point 71 °F    
Average Humidity 72    
Maximum Humidity 85    
Minimum Humidity 44    
Precipitation  
Precipitation 0.00 in - - ()
Sea Level Pressure  
Sea Level Pressure 29.85 in    
Wind  
Wind Speed 8 mph (SE)    
Max Wind Speed 12 mph    
Max Gust Speed 17 mph    
Visibility 10 miles    
Events      
Averages and records for this station are not official NWS values.
T = Trace of Precipitation, MM = Missing Value Source: NWS Daily Summary

Daily Weather History Graph

Daily Weather History Graph

Search for Another Location

Airport or City:

Trip Planner

Search our weather history database for the weather conditions in past years. The results will help you decide how hot, cold, wet, or windy it might be!

Date:

Astronomy

Oct. 11, 2013 Rise Set
Actual Time 7:35 AM CDT 7:11 PM CDT
Civil Twilight 7:11 AM CDT 7:34 PM CDT
Nautical Twilight 6:44 AM CDT 8:02 PM CDT
Astronomical Twilight 6:17 AM CDT 8:29 PM CDT
Moon 2:03 PM CDT (10/11) 12:08 AM CDT (10/11)
Length of Visible Light 12h 23m
Length of Day
11h 35m
Waxing Crescent, 47% of the Moon is Illuminated
Oct 11
Waxing Crescent
Oct 11
First Quarter
Oct 18
Full
Oct 26
Last Quarter
Nov 3
New

Hourly Weather History & Observations

Time (CDT) Temp. Heat Index Dew Point Humidity Pressure Visibility Wind Dir Wind Speed Gust Speed Precip Events Conditions
12:15 AM 77.0 °F - 69.8 °F 78% 29.90 in 10.0 mi SE 8.1 mph - N/A   Overcast
12:53 AM 77.0 °F - 70.0 °F 79% 29.87 in 10.0 mi SE 6.9 mph - N/A   Overcast
1:45 AM 77.0 °F - 71.6 °F 83% 29.88 in 10.0 mi SSE 9.2 mph - N/A   Mostly Cloudy
1:53 AM 77.0 °F - 71.1 °F 82% 29.86 in 10.0 mi SSE 9.2 mph 17.3 mph N/A   Mostly Cloudy
2:53 AM 77.0 °F - 71.1 °F 82% 29.85 in 10.0 mi SSE 5.8 mph - N/A   Overcast
3:30 AM 77.0 °F - 71.6 °F 83% 29.86 in 10.0 mi SE 9.2 mph - N/A   Overcast
3:53 AM 75.9 °F - 71.1 °F 85% 29.83 in 10.0 mi SE 9.2 mph - N/A   Overcast
4:53 AM 77.0 °F - 71.1 °F 82% 29.83 in 10.0 mi SE 8.1 mph 17.3 mph N/A   Overcast
5:14 AM 77.0 °F - 71.6 °F 83% 29.86 in 10.0 mi SE 6.9 mph - N/A   Overcast
5:53 AM 77.0 °F - 71.1 °F 82% 29.85 in 10.0 mi SSE 8.1 mph - 0.00 in   Overcast
6:30 AM 77.0 °F - 71.6 °F 83% 29.87 in 10.0 mi SE 8.1 mph - N/A   Overcast
6:53 AM 77.0 °F - 71.1 °F 82% 29.86 in 10.0 mi SE 8.1 mph - N/A   Overcast
7:00 AM 77.0 °F - 71.6 °F 83% 29.88 in 10.0 mi SE 8.1 mph - N/A   Overcast
7:32 AM 77.0 °F - 71.6 °F 83% 29.89 in 10.0 mi ESE 9.2 mph - N/A   Overcast
7:53 AM 77.0 °F - 72.0 °F 84% 29.87 in 10.0 mi SE 5.8 mph - N/A   Overcast
8:53 AM 78.1 °F - 72.0 °F 81% 29.88 in 10.0 mi SE 6.9 mph - N/A   Overcast
9:53 AM 79.0 °F - 72.0 °F 79% 29.89 in 10.0 mi SSE 10.4 mph - N/A   Overcast
10:04 AM 78.8 °F - 73.4 °F 83% 29.91 in 10.0 mi SE 8.1 mph 16.1 mph N/A   Overcast
10:53 AM 81.0 °F 85.8 °F 73.0 °F 77% 29.90 in 10.0 mi SSE 8.1 mph - N/A   Overcast
11:53 AM 82.9 °F 88.0 °F 72.0 °F 69% 29.90 in 10.0 mi Calm Calm - N/A   Overcast
12:53 PM 84.9 °F 90.1 °F 71.1 °F 63% 29.87 in 10.0 mi SSE 8.1 mph - N/A   Overcast
1:53 PM 89.1 °F 95.0 °F 71.1 °F 55% 29.84 in 10.0 mi SSE 8.1 mph - N/A   Mostly Cloudy
2:53 PM 91.0 °F 96.6 °F 70.0 °F 50% 29.80 in 10.0 mi SSE 8.1 mph 16.1 mph N/A   Partly Cloudy
3:53 PM 91.9 °F 96.9 °F 69.1 °F 47% 29.79 in 10.0 mi SSE 9.2 mph - N/A   Scattered Clouds
4:53 PM 93.0 °F 97.9 °F 69.1 °F 45% 29.78 in 10.0 mi Variable 3.5 mph - N/A   Scattered Clouds
5:53 PM 93.0 °F 97.4 °F 68.0 °F 44% 29.77 in 10.0 mi SE 6.9 mph - N/A   Partly Cloudy
6:53 PM 90.0 °F 93.6 °F 68.0 °F 48% 29.78 in 10.0 mi SSE 5.8 mph - N/A   Clear
7:53 PM 87.1 °F 90.6 °F 68.0 °F 53% 29.79 in 10.0 mi SE 3.5 mph - N/A   Clear
8:53 PM 84.0 °F 87.0 °F 68.0 °F 58% 29.81 in 10.0 mi East 3.5 mph - N/A   Clear
9:53 PM 84.0 °F 89.0 °F 71.1 °F 65% 29.83 in 10.0 mi ESE 6.9 mph - N/A   Clear
10:53 PM 82.0 °F 87.9 °F 73.9 °F 76% 29.84 in 10.0 mi SE 11.5 mph - N/A   Clear
11:53 PM 81.0 °F 86.2 °F 73.9 °F 79% 29.85 in 10.0 mi SE 9.2 mph - N/A   Clear